FW4559 Weather Reports


Display with metric or nautical units.
time (UTC)temp
F
wind
direction
speed
MPH
gust
MPH
rain 1hr
in
rain 24hr
in
rain mn
in
humidity
%
barometer
mb
20260906161549 76 348 0.0 3.0 0.00 0.22 0.21 78 1012.6
20260906161048 77 160 0.0 2.0 0.00 0.22 0.21 79 1012.7
20260906160548 77 193 0.0 0.0 0.00 0.22 0.21 82 1012.7
20260906160046 76 193 0.0 0.0 0.00 0.22 0.21 85 1012.8
20260906155544 74 193 0.0 0.0 0.00 0.22 0.21 85 1012.7
20260906155045 73 301 0.0 1.0 0.00 0.22 0.21 87 1012.8
20260906154547 71 360 0.0 2.0 0.00 0.22 0.21 88 1013.0
20260906154040 70 360 0.0 2.0 0.00 0.22 0.21 88 1013.0
20260906153538 70 131 0.0 0.0 0.00 0.22 0.21 89 1013.0
20260906153038 69 131 0.0 0.0 0.00 0.22 0.21 89 1013.1
20260906152536 69 131 0.0 0.0 0.00 0.22 0.21 88 1013.2
20260906152035 69 131 0.0 0.0 0.00 0.22 0.21 89 1013.1
20260906151536 69 131 0.0 0.0 0.00 0.22 0.21 91 1013.1
20260906151032 68 131 0.0 0.0 0.00 0.22 0.21 93 1013.0
20260906150532 67 131 0.0 0.0 0.01 0.22 0.21 95 1013.0
20260906150039 66 131 0.0 0.0 0.03 0.22 0.21 95 1012.9
20260906145528 65 214 0.0 0.0 0.05 0.22 0.21 96 1012.8
20260906145029 64 116 0.0 0.0 0.06 0.22 0.21 95 1012.9
20260906144529 64 142 0.0 0.0 0.09 0.22 0.21 96 1012.9
20260906144030 63 169 0.0 0.0 0.10 0.22 0.21 96 1012.8
20260906143528 63 231 0.0 0.0 0.12 0.22 0.21 96 1012.7
20260906143028 62 231 0.0 0.0 0.13 0.22 0.21 96 1012.7
20260906142533 62 231 0.0 2.0 0.15 0.22 0.21 96 1012.7
20260906142027 62 231 0.0 2.0 0.16 0.22 0.21 96 1012.8
20260906141526 62 245 0.0 1.0 0.18 0.22 0.21 95 1012.6
20260906141026 62 100 0.0 1.0 0.19 0.22 0.21 95 1012.4
20260906140526 62 3 0.0 0.0 0.18 0.21 0.20 95 1012.9
20260906140033 62 3 0.0 0.0 0.17 0.18 0.17 94 1012.8
20260906135525 62 22 0.0 0.0 0.16 0.17 0.16 94 1012.9
20260906135025 62 330 0.0 0.0 0.14 0.15 0.14 94 1013.2
20260906134525 62 330 0.0 0.0 0.12 0.13 0.12 94 1013.3
20260906134025 62 330 0.0 0.0 0.10 0.11 0.10 94 1013.3
20260906133524 62 330 0.0 0.0 0.09 0.10 0.09 94 1013.4
20260906133026 63 354 0.0 0.0 0.07 0.08 0.07 94 1013.5
20260906132524 63 354 0.0 0.0 0.06 0.07 0.06 94 1013.5
20260906132023 63 354 0.0 2.0 0.05 0.06 0.05 93 1013.5
20260906131524 63 354 0.0 2.0 0.03 0.04 0.03 93 1013.6
20260906131021 63 358 0.0 2.0 0.02 0.03 0.02 93 1013.5
20260906130522 64 325 0.0 2.0 0.02 0.03 0.02 94 1013.6
20260906130033 64 333 0.0 6.0 0.00 0.01 0.00 95 1013.4
20260906125523 64 7 2.0 11.0 0.00 0.01 0.00 96 1013.4
20260906125021 64 348 3.0 11.0 0.00 0.01 0.00 95 1013.2
20260906124518 64 333 0.0 2.0 0.00 0.01 0.00 95 1012.9
20260906124018 64 113 0.0 0.0 0.00 0.01 0.00 95 1012.6
20260906123516 64 112 0.0 0.0 0.00 0.01 0.00 96 1012.5
20260906123028 64 113 0.0 0.0 0.00 0.01 0.00 95 1012.4
20260906122517 64 112 0.0 0.0 0.00 0.01 0.00 95 1012.3
20260906122013 64 112 0.0 0.0 0.00 0.01 0.00 95 1012.2
20260906121513 65 113 0.0 0.0 0.00 0.01 0.00 95 1012.1
20260906121012 65 112 0.0 0.0 0.00 0.01 0.00 95 1012.3
20260906120511 65 113 0.0 0.0 0.00 0.01 0.00 96 1012.1
20260906120011 65 113 0.0 0.0 0.00 0.01 0.00 96 1012.2
20260906115511 65 113 0.0 0.0 0.00 0.01 0.00 96 1012.0
20260906115009 65 113 0.0 1.0 0.00 0.01 0.00 96 1011.8
20260906114510 64 128 0.0 1.0 0.00 0.01 0.00 96 1011.6
20260906114007 64 125 0.0 1.0 0.00 0.01 0.00 96 1011.7
20260906113506 64 131 0.0 0.0 0.00 0.01 0.00 96 1011.7
20260906113011 64 131 0.0 0.0 0.00 0.01 0.00 96 1011.8
20260906112506 64 132 0.0 0.0 0.00 0.01 0.00 96 1011.9
20260906112006 64 131 0.0 0.0 0.00 0.01 0.00 96 1011.7
20260906111505 64 131 0.0 1.0 0.00 0.01 0.00 96 1011.8
20260906111005 64 131 0.0 1.0 0.00 0.01 0.00 96 1011.7
20260906110505 64 131 0.0 2.0 0.00 0.01 0.00 96 1011.5
20260906110104 64 91 0.0 2.0 0.00 0.01 0.00 96 1011.4
20260906105504 64 99 0.0 2.0 0.00 0.01 0.00 96 1011.4
20260906105008 64 106 0.0 1.0 0.00 0.01 0.00 96 1011.3
20260906104507 64 106 0.0 1.0 0.00 0.01 0.00 95 1011.4
20260906104004 64 106 0.0 1.0 0.00 0.01 0.00 95 1011.5
20260906103504 63 89 0.0 2.0 0.00 0.01 0.00 95 1011.5
20260906103011 63 89 0.0 2.0 0.00 0.01 0.00 96 1011.5
20260906102504 62 82 0.0 0.0 0.00 0.01 0.00 96 1011.3
20260906102006 62 82 0.0 0.0 0.00 0.01 0.00 96 1011.4
20260906101504 62 82 0.0 1.0 0.00 0.01 0.00 96 1011.4
20260906101003 62 82 0.0 1.0 0.00 0.01 0.00 96 1011.4
20260906100503 62 349 0.0 0.0 0.00 0.01 0.00 96 1011.3
20260906100007 62 349 0.0 0.0 0.00 0.01 0.00 96 1011.2
20260906095502 62 349 0.0 0.0 0.00 0.01 0.00 96 1011.2
20260906095002 62 349 0.0 1.0 0.00 0.01 0.00 96 1011.0
20260906094502 62 349 0.0 2.0 0.00 0.01 0.00 96 1011.0
20260906094002 62 349 1.0 2.0 0.00 0.01 0.00 96 1010.9
20260906093503 62 166 0.0 1.0 0.00 0.01 0.00 96 1011.0
20260906093003 62 166 0.0 1.0 0.00 0.01 0.00 96 1011.0
20260906092502 62 166 0.0 0.0 0.00 0.01 0.00 96 1011.0
20260906092100 62 166 0.0 0.0 0.00 0.01 0.00 96 1010.9
20260906091600 62 166 0.0 0.0 0.00 0.01 0.00 96 1010.9
20260906091100 62 166 0.0 0.0 0.00 0.01 0.00 96 1010.9
20260906090559 63 166 0.0 0.0 0.00 0.01 0.00 96 1011.0
20260906090100 63 166 0.0 0.0 0.00 0.01 0.00 96 1011.0
20260906085559 63 166 0.0 0.0 0.00 0.01 0.00 96 1011.0
20260906085059 63 166 0.0 0.0 0.00 0.01 0.00 96 1011.1
20260906084602 63 166 0.0 1.0 0.00 0.01 0.00 96 1011.0
20260906084102 63 133 0.0 2.0 0.00 0.01 0.00 96 1010.9
20260906083603 62 133 1.0 2.0 0.00 0.01 0.00 96 1010.8
20260906083100 62 148 0.0 0.0 0.00 0.01 0.00 96 1010.8
20260906082558 62 148 0.0 0.0 0.00 0.01 0.00 96 1010.9
20260906082058 62 148 0.0 0.0 0.00 0.01 0.00 96 1010.8
20260906081559 62 148 0.0 0.0 0.00 0.01 0.00 96 1010.7
20260906081057 63 148 0.0 0.0 0.00 0.01 0.00 96 1010.7
20260906080600 63 148 0.0 0.0 0.00 0.01 0.00 96 1010.8
20260906080058 63 148 0.0 2.0 0.00 0.01 0.00 95 1010.7
20260906075559 62 148 0.0 2.0 0.00 0.01 0.00 95 1010.8
20260906075057 62 138 0.0 0.0 0.00 0.01 0.00 96 1010.9
20260906074557 62 138 0.0 0.0 0.00 0.01 0.00 96 1010.9
20260906074056 62 138 0.0 0.0 0.00 0.01 0.00 96 1011.0
20260906073556 62 139 0.0 0.0 0.00 0.01 0.00 96 1011.0
20260906073055 62 138 0.0 0.0 0.00 0.01 0.00 96 1011.0
20260906072555 62 138 0.0 0.0 0.00 0.01 0.00 96 1011.0
20260906072057 62 138 0.0 0.0 0.00 0.01 0.00 96 1011.0
20260906071555 63 139 0.0 0.0 0.00 0.01 0.00 96 1011.0
20260906071054 63 138 0.0 0.0 0.00 0.01 0.00 96 1010.9
20260906070556 62 138 0.0 0.0 0.00 0.01 0.00 96 1010.8
20260906070054 62 138 0.0 0.0 0.00 0.01 0.00 95 1010.8
20260906065554 62 138 0.0 0.0 0.00 0.01 0.00 96 1010.9
20260906065053 62 138 0.0 0.0 0.00 0.01 0.00 95 1011.1
20260906064551 62 138 0.0 0.0 0.00 0.01 0.00 95 1011.3
20260906064051 62 138 0.0 0.0 0.00 0.01 0.00 95 1011.4
20260906063550 62 138 0.0 0.0 0.00 0.01 0.00 95 1011.6
20260906063049 63 138 0.0 0.0 0.00 0.01 0.00 95 1011.6
20260906062549 63 138 0.0 0.0 0.00 0.01 0.00 95 1011.6
20260906062047 63 139 0.0 0.0 0.00 0.01 0.00 95 1011.9
20260906061552 63 138 0.0 0.0 0.00 0.01 0.00 95 1011.9
20260906061047 63 138 0.0 0.0 0.00 0.01 0.00 95 1011.8
20260906060547 63 138 0.0 0.0 0.00 0.01 0.00 95 1011.9
20260906060047 63 138 0.0 0.0 0.00 0.01 0.00 95 1012.0
20260906055546 63 138 0.0 0.0 0.00 0.01 0.00 95 1012.0
20260906055047 63 138 0.0 0.0 0.00 0.01 0.00 95 1012.2
20260906054601 63 138 0.0 0.0 0.00 0.01 0.00 95 1012.1
20260906054045 63 139 0.0 0.0 0.00 0.01 0.00 94 1012.1
20260906053544 63 138 0.0 0.0 0.00 0.01 0.00 94 1012.1
20260906053044 63 139 0.0 0.0 0.00 0.01 0.00 93 1011.9
20260906052544 63 138 0.0 0.0 0.00 0.01 0.00 93 1012.0
20260906052042 64 138 0.0 0.0 0.00 0.01 0.00 94 1012.1
20260906051542 64 138 0.0 0.0 0.00 0.01 0.00 94 1011.9
20260906051043 64 138 0.0 1.0 0.00 0.01 0.00 94 1012.0
20260906050543 64 138 0.0 1.0 0.00 0.01 0.00 94 1012.1
20260906050040 64 138 0.0 1.0 0.00 0.01 0.00 94 1012.1
20260906045539 64 139 0.0 1.0 0.00 0.01 0.00 94 1012.1
20260906045038 64 153 0.0 0.0 0.00 0.01 0.00 94 1012.3
20260906044538 64 153 0.0 0.0 0.00 0.01 0.00 94 1012.3
20260906044039 64 153 0.0 0.0 0.00 0.01 0.00 94 1012.3
20260906043538 63 153 0.0 0.0 0.00 0.01 0.00 94 1012.2
20260906043037 63 153 0.0 0.0 0.00 0.01 0.00 93 1012.2
20260906042537 63 153 0.0 0.0 0.00 0.01 0.00 93 1012.3
20260906042035 63 153 0.0 0.0 0.00 0.01 0.00 93 1012.4
20260906041535 63 153 0.0 0.0 0.00 0.01 0.00 93 1012.4
20260906041035 64 153 0.0 0.0 0.00 0.01 0.00 92 1012.4
20260906040533 64 153 0.0 0.0 0.00 0.01 0.00 92 1012.4
20260906040044 64 153 0.0 0.0 0.00 0.01 0.00 92 1012.4
20260906035532 64 153 0.0 0.0 0.00 0.01 0.01 92 1012.4
20260906035032 64 153 0.0 0.0 0.00 0.01 0.01 91 1012.5
20260906034546 64 153 0.0 0.0 0.00 0.01 0.01 91 1012.4
20260906034031 65 153 0.0 0.0 0.00 0.01 0.01 91 1012.5
20260906033532 65 153 0.0 1.0 0.00 0.01 0.01 90 1012.5
20260906033031 65 153 0.0 1.0 0.00 0.01 0.01 90 1012.4
20260906032530 65 153 0.0 0.0 0.00 0.01 0.01 90 1012.6
20260906032034 66 153 0.0 1.0 0.00 0.01 0.01 89 1012.6
20260906031558 66 140 0.0 1.0 0.00 0.01 0.01 89 1012.4
20260906031032 66 157 0.0 0.0 0.00 0.01 0.01 88 1012.3
20260906030530 66 157 0.0 1.0 0.00 0.01 0.01 87 1012.4
20260906030032 67 139 0.0 1.0 0.00 0.01 0.01 87 1012.5
20260906025531 67 139 0.0 0.0 0.00 0.01 0.01 86 1012.4
20260906025032 67 139 0.0 2.0 0.00 0.01 0.01 86 1012.5
20260906024550 67 139 0.0 2.0 0.00 0.01 0.01 87 1012.4
20260906024031 67 156 0.0 1.0 0.00 0.01 0.01 87 1012.4
20260906023530 67 171 0.0 1.0 0.00 0.01 0.01 87 1012.5
20260906023027 66 166 0.0 1.0 0.00 0.01 0.01 87 1012.4
20260906022526 66 166 0.0 1.0 0.00 0.01 0.01 86 1012.3
20260906022025 67 162 0.0 1.0 0.00 0.01 0.01 86 1012.2
20260906021524 67 207 0.0 0.0 0.00 0.01 0.01 84 1012.2
20260906021024 68 207 0.0 0.0 0.00 0.01 0.01 83 1012.1
20260906020527 68 207 0.0 0.0 0.00 0.01 0.01 83 1012.2
20260906020024 68 207 0.0 0.0 0.00 0.01 0.01 82 1012.1
20260906015525 69 207 0.0 0.0 0.00 0.01 0.01 81 1012.2
20260906015023 69 207 0.0 0.0 0.00 0.01 0.01 80 1012.2
20260906014524 69 207 0.0 0.0 0.00 0.01 0.01 80 1012.1
20260906014023 69 207 0.0 1.0 0.00 0.01 0.01 79 1012.0
20260906013523 70 207 0.0 1.0 0.00 0.01 0.01 79 1012.0
20260906013023 70 207 0.0 1.0 0.00 0.01 0.01 77 1012.1
20260906012523 71 349 0.0 1.0 0.00 0.01 0.01 76 1011.9
20260906012022 71 349 0.0 1.0 0.00 0.01 0.01 75 1011.8
20260906011522 72 349 0.0 3.0 0.00 0.01 0.01 74 1011.9
20260906011021 72 349 0.0 3.0 0.00 0.01 0.01 74 1011.8
20260906010522 72 343 0.0 2.0 0.00 0.01 0.01 73 1011.8
20260906010040 72 326 0.0 5.0 0.00 0.01 0.01 73 1011.5
20260906005521 72 11 1.0 5.0 0.00 0.01 0.01 73 1011.4
20260906005022 73 336 1.0 10.0 0.00 0.01 0.01 72 1011.4
20260906004522 73 11 1.0 10.0 0.00 0.01 0.01 72 1011.5
20260906004022 73 326 1.0 5.0 0.00 0.01 0.01 71 1011.3
20260906003521 73 320 1.0 7.0 0.00 0.01 0.01 71 1011.3
20260906003021 73 311 1.0 4.0 0.00 0.01 0.01 71 1011.4
20260906002520 73 18 0.0 3.0 0.00 0.01 0.01 70 1011.4
20260906002024 73 341 0.0 4.0 0.00 0.01 0.01 70 1011.3
20260906001524 73 354 1.0 4.0 0.00 0.01 0.01 70 1011.2
20260906001019 73 343 1.0 4.0 0.00 0.01 0.01 70 1011.2
20260906000519 73 345 2.0 3.0 0.00 0.01 0.01 70 1011.1
20260906000021 73 351 0.0 2.0 0.00 0.01 0.01 70 1011.0
20260905235519 73 355 0.0 0.0 0.00 0.01 0.01 70 1010.9
20260905235021 74 355 0.0 0.0 0.00 0.01 0.01 69 1010.9
20260905234518 74 355 0.0 0.0 0.00 0.01 0.01 68 1011.0
20260905234019 75 355 0.0 0.0 0.00 0.01 0.01 67 1010.9
20260905233519 75 355 0.0 1.0 0.00 0.01 0.01 67 1010.9
20260905233020 76 355 0.0 1.0 0.00 0.01 0.01 67 1010.8
20260905232518 76 355 0.0 3.0 0.00 0.01 0.01 67 1010.9
20260905232018 76 354 0.0 2.0 0.00 0.01 0.01 66 1010.9
20260905231517 76 353 0.0 3.0 0.00 0.01 0.01 65 1010.8
20260905231019 77 360 0.0 3.0 0.00 0.01 0.01 64 1010.8
20260905230517 77 360 0.0 4.0 0.00 0.01 0.01 63 1010.8
20260905230030 77 340 1.0 4.0 0.00 0.01 0.01 63 1010.9
20260905225521 77 8 0.0 5.0 0.00 0.01 0.01 62 1010.9
20260905225017 77 346 1.0 6.0 0.00 0.01 0.01 62 1010.9
20260905224520 78 7 3.0 6.0 0.00 0.01 0.01 60 1011.0
20260905224017 78 340 1.0 11.0 0.00 0.01 0.01 60 1011.0
20260905223516 78 347 2.0 11.0 0.00 0.01 0.01 60 1010.9
20260905223018 78 349 2.0 8.0 0.00 0.01 0.01 59 1011.0
20260905222517 78 40 2.0 9.0 0.00 0.01 0.01 59 1011.1
20260905222015 78 20 2.0 9.0 0.00 0.01 0.01 58 1010.9
20260905221615 79 352 1.0 8.0 0.00 0.01 0.01 58 1011.0
20260905221016 79 344 1.0 9.0 0.00 0.01 0.01 58 1010.9
20260905220516 79 323 4.0 9.0 0.00 0.01 0.01 57 1010.9
20260905220016 79 311 2.0 8.0 0.00 0.01 0.01 57 1010.9
20260905215516 79 20 3.0 8.0 0.00 0.01 0.01 56 1011.0
20260905215014 80 316 3.0 8.0 0.00 0.01 0.01 55 1010.8
20260905214515 80 335 1.0 8.0 0.00 0.01 0.01 56 1010.8
20260905214014 80 10 2.0 9.0 0.00 0.01 0.01 54 1010.7
20260905213517 80 17 2.0 8.0 0.00 0.01 0.01 54 1010.6
20260905213014 80 6 3.0 12.0 0.00 0.01 0.01 53 1010.7
20260905212513 80 4 2.0 12.0 0.00 0.01 0.01 53 1010.7
20260905212012 80 358 4.0 12.0 0.00 0.01 0.01 52 1010.7
20260905211529 80 325 3.0 12.0 0.00 0.01 0.01 51 1010.8
20260905211013 80 307 0.0 10.0 0.00 0.01 0.01 52 1010.6
20260905210512 81 349 3.0 8.0 0.00 0.01 0.01 51 1010.7
20260905210012 81 335 0.0 12.0 0.00 0.01 0.01 52 1010.8
20260905205511 80 336 3.0 12.0 0.00 0.01 0.01 52 1010.7
20260905205011 80 329 2.0 13.0 0.00 0.01 0.01 52 1010.7
20260905204510 80 345 3.0 13.0 0.00 0.01 0.01 54 1010.7
20260905204015 81 309 4.0 9.0 0.00 0.01 0.01 53 1010.7
20260905203510 81 329 2.0 9.0 0.00 0.01 0.01 55 1010.7
20260905203009 81 24 2.0 5.0 0.00 0.01 0.01 58 1010.6
20260905202508 80 347 0.0 2.0 0.00 0.01 0.01 61 1010.7
20260905202007 79 271 0.0 4.0 0.00 0.01 0.01 62 1010.7
20260905201505 79 347 2.0 4.0 0.00 0.01 0.01 61 1010.8
20260905201005 80 345 1.0 4.0 0.00 0.01 0.01 62 1010.7
20260905200508 79 2 0.0 6.0 0.00 0.01 0.01 63 1010.7
20260905200008 79 345 1.0 6.0 0.00 0.01 0.01 61 1010.7
20260905195505 79 359 1.0 3.0 0.00 0.01 0.01 61 1010.6
20260905195004 78 182 0.0 3.0 0.00 0.01 0.01 63 1010.6
20260905194504 78 76 0.0 2.0 0.00 0.01 0.01 63 1010.7
20260905194003 77 210 0.0 2.0 0.00 0.01 0.01 64 1010.5
20260905193502 76 207 0.0 2.0 0.00 0.01 0.01 66 1010.4
20260905193002 75 340 0.0 2.0 0.00 0.01 0.01 66 1010.5
20260905192503 75 86 0.0 2.0 0.00 0.01 0.01 67 1010.4
20260905192100 74 18 0.0 4.0 0.00 0.01 0.01 69 1010.4
20260905192000 74 319 0.0 4.0 0.00 0.01 0.01 70 1010.4
20260905191501 74 346 1.0 6.0 0.00 0.01 0.01 71 1010.4
20260905191003 73 84 1.0 6.0 0.00 0.01 0.01 72 1010.3
20260905190501 73 152 0.0 2.0 0.00 0.01 0.01 76 1010.3
20260905190100 73 25 0.0 3.0 0.00 0.01 0.01 77 1010.2
20260905185601 72 12 0.0 3.0 0.00 0.01 0.01 79 1010.3
20260905185059 72 347 2.0 3.0 0.00 0.01 0.01 77 1010.3
20260905184559 72 351 0.0 2.0 0.01 0.01 0.01 78 1010.4
20260905184058 72 358 0.0 2.0 0.01 0.01 0.01 77 1010.4
20260905183558 72 358 0.0 2.0 0.01 0.01 0.01 78 1010.5
20260905183058 71 3 0.0 2.0 0.01 0.01 0.01 79 1010.6
20260905182556 71 134 0.0 1.0 0.01 0.01 0.01 82 1010.9
20260905182055 70 212 0.0 1.0 0.01 0.01 0.01 83 1011.1
20260905181555 69 195 0.0 5.0 0.01 0.01 0.01 84 1011.2
20260905181052 68 179 1.0 5.0 0.01 0.01 0.01 84 1011.5
20260905180553 69 212 1.0 4.0 0.01 0.01 0.01 84 1011.9
20260905180101 69 357 0.0 3.0 0.01 0.01 0.01 82 1011.7
20260905175553 69 357 0.0 3.0 0.01 0.01 0.01 79 1011.7
20260905175052 69 355 0.0 2.0 0.01 0.01 0.01 79 1011.5
20260905174555 70 7 0.0 5.0 0.00 0.00 0.00 77 1011.6
20260905174054 71 333 0.0 6.0 0.00 0.00 0.00 75 1012.3
20260905173551 71 356 1.0 7.0 0.00 0.00 0.00 72 1012.7
20260905173100 72 360 2.0 7.0 0.00 0.00 0.00 70 1013.0
20260905172550 73 350 1.0 10.0 0.00 0.00 0.00 69 1012.9
20260905172050 73 345 3.0 10.0 0.00 0.00 0.00 68 1013.2
20260905171549 74 349 1.0 6.0 0.00 0.00 0.00 67 1013.3
20260905171048 74 7 0.0 7.0 0.00 0.00 0.00 66 1013.4
20260905170549 74 357 0.0 16.0 0.00 0.00 0.00 67 1013.6
20260905170049 75 327 6.0 16.0 0.00 0.00 0.00 65 1013.6
20260905165548 76 337 5.0 17.0 0.00 0.00 0.00 65 1013.6
20260905165052 77 339 8.0 25.0 0.00 0.00 0.00 66 1013.4
20260905164548 78 26 7.0 25.0 0.00 0.00 0.00 68 1013.3
20260905164047 79 315 3.0 13.0 0.00 0.00 0.00 71 1013.2
20260905163550 79 30 6.0 13.0 0.00 0.00 0.00 69 1013.2
20260905163049 79 328 2.0 17.0 0.00 0.00 0.00 69 1013.3
20260905162548 80 317 5.0 17.0 0.00 0.00 0.00 67 1013.2
20260905162046 80 353 5.0 15.0 0.00 0.00 0.00 66 1013.1